200 serials | registration key baby maker

Date Name Success Rate
2009-10-22 23:45:54 Come On Baby 0%
2009-10-22 23:45:54 Come'on Baby 0%
2011-09-08 10:28:08 Come on Baby 0%
2011-09-08 10:28:08 Come'on Baby 0%
2011-09-08 10:28:08 Come'on Baby 0%
2011-09-08 12:28:55 PC Baby 98 5.0.5 0%
2011-09-08 12:28:55 PC Baby 98 5.1.1 0%
2011-09-08 12:28:55 PC Baby 98 v5.0.5 0%
2011-09-08 12:28:55 PC Baby 98 v5.1.1 0%
2011-09-08 12:28:55 PC Baby 98 v5.1.1 by UCF 0%
2009-10-17 06:19:27 Baby Diary V1.01 25%
2009-10-22 23:44:48 Baby Diary 1.0 B6 0%
2009-10-22 23:44:48 Baby Diary 1.01 0%
2009-10-22 23:44:48 Baby Diary 1.0b6 0%
2011-09-08 10:18:18 Baby Letters v1.0 0%
2011-09-08 10:18:18 Baby Letters 1.0 0%
2011-09-08 10:18:18 Baby Draw 1.0 0%
2011-09-08 10:18:18 Baby Draw v1.0 0%
2011-09-08 10:18:18 Baby Diary v1.0b6 by SnD 0%
2011-09-08 10:18:18 Baby Diary v1.0 b6 by FFF 0%
2011-09-08 10:18:18 Baby Diary 1.0b6 0%
2011-09-08 10:18:18 Baby Diary 1.0 b6 0%
2011-09-08 12:25:44 My Precious Baby 1.2 0%
2011-09-08 12:25:44 My Precious Baby v1 2 0%
2009-10-22 23:44:48 Baby Diary 1.0 Beta 7 0%
2011-09-08 10:18:18 Baby Diary v1.0 beta 7 by CtP 0%
2011-09-08 10:18:18 Baby Diary v1.0 Beta 7 0%
2011-09-08 10:18:18 Baby Diary 1.0 Beta 7 0%
2011-09-08 10:20:46 Boogie Baby Screensaver 3.6 0%
2011-09-08 10:20:46 Boogie Baby Screensaver v3.6 0%
2011-09-08 10:42:01 Dancing Baby Screensaver 3.3.2.0 0%
2011-09-08 10:56:15 Forecast Your Baby Gender 1.32 0%
2011-09-08 10:56:15 Forecast Your Baby Gender v1.32 0%
2011-09-08 10:42:01 Dancing Baby Screen Saver 0%
2011-09-08 10:42:09 DAS Registration 1.5.2 69%
2011-09-08 10:42:09 DAS Registration For CW5 0%
2011-09-08 10:42:09 DAS Registration v1.5.2 0%
2009-10-17 06:27:02 Lazarus Registration DLL V1.0 59%
2009-10-22 23:48:48 MemoriesonTV Registration 0%
2009-10-22 23:49:42 Registration Wizard 40%
2011-09-08 10:06:47 AnetHelpTool v4.02 Registration 60%
2011-09-08 10:22:13 ByeLines Registration 60%
2011-09-08 10:57:42 Ftgate Registration 63%
2011-09-08 11:15:16 Infodex v2.10 Registration 0%
2011-09-08 11:25:08 Lazarus Registration DLL v1.0 0%
2011-09-08 11:27:46 Mac Opener v3.0 Registration 57%
2011-09-08 11:32:59 mIRC v4.5+ Registration 60%
2011-09-08 11:32:59 mIRC v4.52 Registration 60%
2011-09-08 12:37:02 Quant v2.0 Registration 0%
2011-09-08 12:41:14 Registration Suite 1.0 60%
2011-09-08 12:41:14 Registration Suite v1.0 60%
2011-09-08 12:41:14 Registration Wizard Pro 5.01 46%
2011-09-08 12:41:14 Registration Wizard Pro v5.01 60%
2011-09-08 13:18:59 WinHacker 95 v2.02 Registration 57%
2012-12-13 05:12:00 Registration Key : 526EFEF086E09600449E667EA2DAE8E2E6D642BC 83%
2009-10-22 23:27:21 Ardamax Keylogger 2.9 Registration 56%
2009-10-22 23:48:49 Microsoft Registration Hacker - 39%
2009-10-22 23:49:57 SoudForge ALL (No Registration Requiered) 0%
2009-10-22 23:50:26 Valve's Registration Armor Key-Gen 60%
2011-09-08 10:21:42 Browserola v1.01 Temp. Registration 0%
2011-09-08 10:56:11 FontLook v3.1 Registration Code 86%
2011-09-08 11:31:51 Microsoft Registration Hacker 0%
2011-09-08 11:31:51 Microsoft Registration Hacker - 0%
2011-09-08 11:31:51 Microsoft Registration HackerMSREGHACK 0%
2011-09-08 11:32:07 Microstation v5.xx.xx & 95 FULL REGISTRATION 48%
2011-09-08 11:42:43 Nic O'Matic 1.6 Registration Code 50%
2011-09-08 11:42:43 Nic O'Matic v1.6 Registration Code 55%
2011-09-08 12:34:57 PolyTrans V1.2E Registration Activator CD-Key 62%
2011-09-08 12:34:57 PolyView v2.9b16 Registration 0%
2011-09-08 12:54:09 Time Registration (German) 1.10 0%
2011-09-08 12:59:30 Super Collapse Registration 100%
2011-09-08 13:23:15 Yipe! II for Windows Registration #154 0%
2012-12-13 08:49:53 Softwarenetz Time Registration v1.10 0%
2012-12-13 08:49:56 Softwarenetz Time Registration v1.14 0%
2012-12-13 15:34:10 Valve's Registration Armor Key-Gen 0%
2009-10-22 23:48:17 Internet Download Manager Registration 50%
2011-09-08 10:25:56 Cheyenne Bitware V4.0 Registration Number 60%
2011-09-08 11:31:51 Microsoft Registration Hacker MSREGHACK 80%
2011-09-08 11:31:51 Microsoft Visual Basic 5 registration cd key 72%
2011-09-08 12:54:14 TimeSlips 10.5 enterprise - with registration code! 0%
2012-12-12 08:07:32 Download avast 5.0.667 Antivirus registration 0%
2012-12-13 05:12:00 Registration Code For PDFZilla Giveaway 0%
2012-12-13 05:12:00 Registration key for x-3gp-video-converter-38540 54%
2012-12-13 13:12:40 Total Image Converter Registration Key 57%
2011-09-08 11:30:16 MediaBlaze 98 v1.01 Win95/NT User: delphic Registration 0%
2012-12-13 05:12:00 Registration code:-826510-16101-266644 71%
2009-10-22 23:49:02 Norton Internet Security 2005 Registration Guide 0%
2011-09-08 09:58:40 Acoustica Mixcraft v1.10 Build 15 Registration Info by MaBi 60%
2012-12-12 19:40:26 Microsoft Visual Basic 2008 Express Edition Registration key 20%
2011-09-08 13:20:57 www.nexusmedia.net/ Burn Baby Burn v1.4 0%
2011-09-08 10:22:03 Burn Baby Burn 1.4 0%
2011-09-08 10:22:03 Burn Baby Burn v1.4 0%
2009-10-17 06:19:00 ASP NET Maker V2.1 12%
2009-10-17 06:19:00 ASP NET Maker V3.2 14%
2009-10-17 06:19:00 ASP NET Maker V3.2.1 22%
2009-10-17 06:19:00 ASP NET Maker V3.3.0.0 17%
2009-10-17 06:19:00 ASP NET Maker V3.3.0.0 12%
2009-10-17 06:19:00 ASP NET Maker V3.3.0.1 Ava 3.4.0 27%
2009-10-17 06:20:14 CD To MP3 WAV Maker V1.05 22%
2009-10-17 06:20:14 CD To MP3 WAV Maker V1.08 23%
2009-10-17 06:20:14 CD To MP3 Wav Maker V1.09 13%
2009-10-17 06:20:14 CD To MP3 Wav Maker V1.10-CRD 15%
2009-10-17 06:20:14 CD To MP3 WAV Maker V1.11 24%
2009-10-17 06:20:14 CD To MP3 WAV Maker V1.11 24%
2009-10-17 06:20:14 CD To MP3 Wav Maker V1.12 22%
2009-10-17 06:20:14 CD To MP3 WAV Maker V1.13 20%
2009-10-17 06:20:14 CD To MP3 WAV Maker V1.14 14%
2009-10-17 06:20:14 CD To MP3 WAV Maker V1.15 23%
2009-10-17 06:20:14 CD To MP3 WAV Maker V1.15 16%
2009-10-17 06:28:04 MP3 CD Maker V2.00 0%
2009-10-17 06:28:08 My DVD Maker V1.0 100%
2009-10-17 07:19:56 007 DVD Maker V3.0.0.45 0%
2009-10-17 07:19:56 007 DVD Maker V3.2.0.0 100%
2009-10-17 07:19:56 007 DVD Maker V3.52 0%
2009-10-17 07:19:56 007 DVD Maker V3.62 0%
2009-10-17 07:19:56 007 DVD Maker V3.72 0%
2009-10-23 07:01:08 007 DVD Maker V3.0.0.48 0%
2009-10-23 07:01:08 007 DVD Maker V3.49 0%
2009-10-23 07:01:08 007 DVD Maker V3.52 0%
2009-10-23 07:01:08 007 DVD Maker V3.62 0%
2009-10-23 07:01:23 3D Maker 1.1.0 0%
2009-10-23 07:01:23 3D Maker 2.0.0 0%
2009-10-23 07:01:23 3D Maker 2.1.0 0%
2009-10-22 23:27:25 ASP NET Maker V2.1 0%
2009-10-22 23:27:25 ASP NET Maker V2.2 0%
2009-10-22 23:27:25 ASP NET Maker V3.2.1 0%
2009-10-22 23:27:25 ASP NET Maker V3.3.0.0 0%
2009-10-22 23:27:25 ASP NET Maker V3.3.0.1.ava 3.4.0 0%
2009-10-22 23:27:25 ASP NET Maker V7.0.0.1 0%
2009-10-22 23:27:25 ASP NET Maker V7.0.0.3 0%
2009-10-22 23:45:50 CD To Mp3 Maker 1.22 0%
2009-10-22 23:45:50 CD To MP3 WAV Maker 1.00 0%
2009-10-22 23:45:50 CD To MP3 Wav Maker 1.1 0%
2009-10-22 23:45:50 CD To MP3 Wav Maker 1.12 0%
2009-10-22 23:45:50 CD To MP3 WAV Maker 1.13 0%
2009-10-22 23:45:50 CD To MP3 WAV Maker 1.14 0%
2009-10-22 23:45:50 CD To MP3 WAV Maker 1.15 0%
2009-10-22 23:48:51 MP3 CD Maker 1.80 0%
2009-10-22 23:48:51 MP3 CD Maker 1.90 0%
2009-10-22 23:48:51 MP3 CD Maker 2.0 0%
2009-10-22 23:48:51 MP3 CD Maker V1.80 0%
2009-10-22 23:48:53 My DVD Maker 1.0 0%
2009-10-22 23:49:02 NTI CD & DVD-Maker 7 60%
2009-10-22 23:49:02 NTI DVD&CD MAKER 20%
2009-10-22 23:49:22 PHP Maker 0%
2009-10-22 23:49:24 Pop Maker Pro 1.01 0%
2009-10-22 23:49:44 RPG Maker XP 67%
2009-10-22 23:49:44 RPG Maker XP (eng) 14%
2009-10-22 23:49:44 Rpg Maker XP 1.02 67%
2009-10-22 23:50:57 Z-Up Maker 4.8.3.1 0%
2009-10-22 23:50:57 Z-Up Maker 5.3.0.411 0%
2009-10-22 23:50:57 Z-Up Maker 5.4 0%
2011-09-08 09:45:58 3D Maker v1.0.0 0%
2011-09-08 09:45:58 3D Maker v1.1.0 0%
2011-09-08 09:45:58 3D Maker v2.1.0 0%
2011-09-08 09:49:58 AAA CD to Mp3 Maker 1.10 0%
2011-09-08 09:49:58 AAA CD to Mp3 Maker v1.10 0%
2011-09-08 09:49:58 AAA MP3 CD Maker 1.60 0%
2011-09-08 09:49:58 AAA MP3 CD Maker v1.60 0%
2011-09-08 10:09:03 ASP Maker 4.0 0%
2011-09-08 10:09:03 ASP Maker 5.0 0%
2011-09-08 10:09:05 ASP.Net Maker 2.0.0 0%
2011-09-08 10:09:05 ASP.Net Maker 2.1.1 0%
2011-09-08 10:09:05 ASP.NET Maker 8.0.1 0%
2011-09-08 10:24:31 CD Maker Pro 5.1.9 0%
2011-09-08 10:24:31 CD Maker Pro v5.1.9 0%
2011-09-08 10:24:42 CD to MP3 Maker 1.0 0%
2011-09-08 10:24:42 CD To MP3 Maker 1.01 0%
2011-09-08 10:24:42 CD to MP3 Maker 1.15 0%
2011-09-08 10:24:42 CD to MP3 Maker 1.22 0%
2011-09-08 10:24:42 CD to MP3 Maker 2.6 0%
2011-09-08 10:24:42 CD to MP3 Maker v1.0 0%
2011-09-08 10:24:42 CD to MP3 Maker v1.01 0%
2011-09-08 10:24:42 CD to MP3 Maker v1.15 0%
2011-09-08 10:24:42 CD to MP3 Maker v1.16 0%
2011-09-08 10:24:42 CD to MP3 Maker v1.22 0%
2011-09-08 10:24:42 CD to MP3 WAV Maker 1.00 0%
2011-09-08 10:24:42 CD to MP3 WAV Maker 1.08 0%
2011-09-08 10:24:42 CD to MP3 WAV Maker 1.09 0%
2011-09-08 10:24:42 CD to MP3 WAV Maker 1.11 0%
2011-09-08 10:24:42 CD to MP3 WAV Maker 1.12 0%
2011-09-08 10:24:42 CD to MP3 WAV Maker 1.14 0%
2011-09-08 10:24:42 CD to MP3 WAV Maker 1.15 0%
2011-09-08 10:24:44 CD to MP3 WAV Maker v1.00 0%
2011-09-08 10:24:44 CD to MP3 WAV Maker v1.01 0%
2011-09-08 10:24:44 CD To MP3 WAV Maker v1.03 0%
2011-09-08 10:24:44 CD to MP3 WAV Maker v1.08 0%
2011-09-08 10:24:44 CD to MP3 Wav Maker v1.10 0%
2011-09-08 10:24:44 CD to MP3 WAV Maker v1.11 0%
2011-09-08 10:24:44 CD to MP3 WAV Maker v1.12 0%
2011-09-08 10:24:44 CD to MP3 WAV Maker v1.13 0%
2011-09-08 10:24:44 CD to MP3 WAV Maker v1.14 0%
2011-09-08 10:24:44 CD to MP3 WAV Maker v1.15 0%
2011-09-08 11:17:24 ISO Maker 4.5 63%
2011-09-08 11:29:15 Map Maker Pro 2.1 0%
2011-09-08 11:29:15 Map Maker Pro 3.5 77%
2011-09-08 11:29:15 Map Maker Pro v2.1 0%
2011-09-08 11:34:04 MP3 CD Maker 1.0 0%
2011-09-08 11:34:04 MP3 CD Maker 1.17 0%
2011-09-08 11:34:04 MP3 CD Maker 1.18 0%